Find EPIC Hyper-1

NORAD ID: 56225 Int'l Des: 2023-054 Owner: CLAAC/WYV Country: UK operational
LEOCIRCULARRETROGRADESSO

リアルタイム位置

3D地球を読み込み中...

EPIC Hyper-1について

説明を読み込み中...

次回通過

Passes for default location (London). Set your location on the main map for personalized predictions.

高度履歴

Loading altitude history...

軌道要素

1 56225U 23054AZ 26105.90507104 .00000987 00000-0 60630-4 0 9997
2 56225 97.3776 344.4058 0009553 350.2937 9.8108 15.12289994165952
Epoch: Apr 15, 2026 • Age: 6 hours

現在のステータス

高度 538.6 km
速度 7.59 km/s
衛星直下点 -39.53°S, 87.96°E
打ち上げ日 Apr 15, 2023
運用期間 3 years
タイプ other

技術仕様

分類 Payload
質量 10.00 kg
乾燥質量 10.00 kg
総質量 10.00 kg
長さ 0.30 m
直径 0.20 m
スパン 0.40 m
形状 Box + 2 pan
製造者 CLAAC
バスタイプ Cubesat 6U
フェーズステータス In Orbit
所有者/国 CLAAC/WYV/UK

Most Searched